{"data":{"norad_id":64010,"intl_designator":"2025-101S","name":"STARLINK-34113","alt_names":[],"object_type":"PAYLOAD","status":"ACTIVE","operator":null,"country":"US","launch_date":"2025-05-14","launch_site_code":"AFETR","launch_vehicle":null,"mission":null,"orbit_class":"UNKNOWN","rcs_meters":null,"size_class":null,"mass_kg":null,"dimensions":null,"purposes":["comms"],"wikipedia_slug":null,"has_3d_model":false,"image_url":null,"decayed_at":null,"tle_current":{"epoch":"2026-09-20T05:22:58.700928Z","epoch_age_seconds":167398,"freshness":"FRESH","line1":"1 64010U 25101S   26263.22429052  .00010341  00000+0  38471-3 0  9999","line2":"2 64010  43.0017 339.6024 0001206 260.5673  99.5042 15.27585229 76809","mean_motion":15.27585229,"eccentricity":0.0001206,"inclination_deg":43.0017,"raan_deg":339.6024,"arg_perigee_deg":260.5673,"mean_anomaly_deg":99.5042,"bstar":0.00038471,"rev_number":7680,"period_min":94.266426033896,"perigee_km":482.2059814223,"apogee_km":483.86089573209,"semimajor_km":6861.1704385772,"source":"CELESTRAK","updated_at":"2026-09-21T09:00:35.182998Z"}}}